Wind_Speed
21 20 20 20 20 19 18 16 15 14 15 15 16 15 14 13 12 12 11 11 10 10 9 9 9 9 9 8 8 8 7 6 6 7 7 7 8 9 10 10 11 12 13 13 14 14 14 14 13 14 14 14 13 11 12 12 11 11 11 12 14 15 16 17 16 15 16 17 18 18 19 18 18 19 18 18 18 19 19 20 21 22 23 23 24
20 20 21 21 20 20 19 19 18 16 16 16 16 17 16 15 14 13 12 12 11 10 10 10 10 9 9 8 8 8 8 8 7 7 6 6 7 8 8 9 10 11 12 12 13 14 15 14 14 15 15 15 14 13 13 13 12 12 11 12 13 14 15 17 18 18 17 18 19 19 20 20 20 21 21 21 21 22 22 22 23 23 24 24 25
20 20 20 21 20 19 19 20 20 19 18 17 16 17 17 17 16 15 13 13 12 11 11 11 11 10 10 9 8 8 8 8 8 8 7 7 7 7 8 8 9 10 11 12 13 14 15 15 15 15 16 15 15 15 14 14 14 13 12 12 12 13 14 15 16 17 17 17 18 19 20 21 22 22 22 23 24 24 24 24 24 23 23 24 24
22 21 21 20 20 20 20 20 20 20 19 17 16 17 17 18 18 17 15 14 14 13 12 12 12 12 11 10 9 9 8 8 8 8 8 8 8 8 9 9 9 9 9 10 11 12 13 14 14 15 16 16 16 16 15 14 15 15 14 13 12 12 13 13 13 14 15 15 15 17 19 21 21 22 23 24 25 25 25 24 24 23 23 24 24
23 23 22 21 21 20 20 20 21 21 21 19 18 17 18 18 19 19 18 17 16 15 14 14 13 13 12 11 11 10 10 9 9 9 9 9 9 10 10 10 10 10 10 10 11 11 11 11 13 14 14 14 14 15 16 15 15 15 15 14 13 13 13 14 14 14 14 14 14 16 18 19 19 19 21 23 24 24 23 23 23 22 22 22 23
24 23 23 23 23 23 22 20 21 22 21 21 20 19 19 19 20 20 20 19 18 17 16 15 14 14 13 12 12 11 11 11 11 10 11 11 11 11 11 11 11 11 11 11 11 11 11 11 12 12 13 13 13 14 15 15 15 15 14 14 15 14 14 15 15 15 15 15 14 15 16 16 16 16 17 21 22 21 20 20 20 20 21 22 22
25 24 23 22 22 24 24 21 21 22 21 20 21 21 21 21 21 22 22 22 21 20 19 18 16 15 14 14 14 13 13 13 13 12 12 12 12 12 12 12 12 12 11 11 11 12 12 12 12 12 12 12 12 12 13 14 14 15 15 15 15 16 16 16 16 17 17 16 15 15 15 16 16 16 16 18 19 19 20 20 19 18 20 22 22
25 25 23 21 20 21 23 23 22 23 23 21 19 19 21 21 22 23 24 24 24 23 22 20 19 17 16 16 15 15 16 15 15 14 14 14 13 13 14 14 14 13 13 12 12 12 12 13 13 12 12 12 12 12 12 13 14 15 15 16 16 16 16 16 16 16 17 16 15 15 15 15 15 16 16 17 18 18 20 22 22 20 21 22 22
24 22 21 20 20 20 21 22 23 24 25 24 21 20 21 21 21 22 23 24 24 24 24 23 22 20 19 18 18 18 18 17 16 15 15 15 14 14 14 15 15 15 15 14 14 14 13 13 13 13 13 13 13 13 13 14 15 15 16 16 17 16 16 16 16 16 17 17 16 16 16 16 15 16 16 16 17 18 19 21 23 23 23 23 22
24 23 21 20 21 22 23 22 23 24 24 23 23 23 23 22 21 20 19 21 22 22 23 23 23 22 21 20 19 19 19 17 17 16 16 15 15 15 15 15 15 16 16 16 16 15 15 14 14 14 15 15 15 15 15 16 16 16 16 17 17 17 17 17 17 17 18 18 17 17 18 18 17 17 17 17 18 19 20 22 24 24 24 24 23
24 24 22 21 20 21 22 21 22 22 23 23 24 25 24 23 22 20 19 19 19 20 21 23 23 22 22 22 21 20 19 18 18 18 17 17 16 16 16 16 16 16 16 17 16 16 16 16 16 16 16 16 16 16 17 17 18 18 18 18 18 18 19 20 19 19 19 19 19 19 20 20 18 18 18 18 19 21 22 23 25 25 26 26 24
23 22 22 21 20 20 20 21 21 21 23 26 27 26 25 23 22 22 22 20 19 18 19 21 22 22 22 22 22 22 21 20 20 19 19 19 18 18 18 17 17 17 17 17 17 17 17 17 16 17 17 17 17 17 18 19 19 20 20 20 20 20 21 21 21 20 20 20 21 20 20 20 19 18 19 19 21 22 23 24 25 26 27 27 25
20 20 20 21 21 21 20 21 21 21 23 26 26 24 24 24 24 25 25 23 22 21 20 21 22 22 23 22 21 22 22 21 21 21 21 21 21 21 20 20 19 19 19 18 18 18 18 17 17 17 16 17 17 18 19 19 19 20 21 21 22 22 22 22 22 22 22 22 22 21 20 20 20 19 19 21 22 23 24 24 25 27 28 28 26
17 17 17 19 21 22 22 22 22 22 24 25 25 24 24 26 28 29 28 26 24 24 23 23 22 22 23 23 22 22 21 21 22 22 22 22 22 23 23 23 22 22 21 20 20 19 18 18 18 17 17 17 17 18 18 19 19 19 20 21 21 21 22 22 23 23 23 23 23 22 21 21 22 21 21 23 25 25 26 26 27 28 28 27 26
17 17 17 18 20 22 23 22 22 23 25 25 25 24 25 26 28 30 30 29 27 27 26 26 25 24 24 25 24 23 22 21 21 22 22 22 22 22 24 24 24 24 23 22 21 20 19 19 19 18 18 18 17 18 18 19 19 20 21 21 21 21 21 22 22 22 23 24 24 24 23 23 24 24 24 25 27 28 29 29 28 29 28 28 27
16 18 18 20 21 22 22 22 21 23 24 25 25 24 24 25 26 28 28 28 28 28 29 28 27 27 27 27 26 24 23 22 21 21 21 21 21 22 23 25 25 26 25 24 23 22 21 21 21 20 19 19 18 18 19 20 21 22 22 22 21 21 21 20 21 22 23 24 25 25 26 26 26 26 26 27 29 29 31 31 30 30 30 30 29
11 13 15 18 20 22 23 23 23 24 25 25 24 25 25 27 27 28 28 27 27 27 29 29 29 29 29 29 29 26 24 23 23 23 22 22 22 22 22 23 25 26 26 25 25 24 24 23 23 23 22 21 20 20 20 22 23 24 24 23 23 23 22 21 22 23 24 26 27 28 28 29 29 29 29 29 29 31 33 33 31 31 32 32 31
8 9 11 13 15 18 20 22 24 25 25 25 24 24 26 28 28 29 30 29 27 27 28 29 30 30 30 31 30 29 28 29 28 26 23 22 22 22 22 23 24 24 24 25 25 26 26 26 26 26 25 23 22 22 23 24 26 26 26 26 26 26 25 24 25 26 27 28 30 31 31 31 31 31 31 30 30 32 34 34 33 33 34 34 33
9 9 10 11 12 14 17 19 22 24 25 26 26 27 28 29 29 30 30 30 29 28 29 30 30 31 31 30 30 30 31 33 33 30 27 26 27 27 27 27 26 25 24 24 24 25 25 26 26 27 27 26 25 25 25 26 28 28 28 29 30 29 27 27 28 29 30 31 32 33 33 33 33 33 32 31 31 32 33 34 33 34 35 34 33
11 11 11 11 12 13 14 16 19 21 23 25 27 29 31 31 32 32 32 32 30 30 30 31 31 31 32 31 31 31 33 33 32 32 32 32 32 32 32 31 29 27 26 26 26 26 26 26 26 27 27 27 27 27 28 29 29 30 30 31 32 30 29 30 30 30 32 33 33 34 34 34 34 34 33 32 32 32 33 33 34 34 35 35 34
14 14 13 13 13 14 14 15 16 18 19 22 25 27 30 32 33 34 34 33 32 30 30 31 32 33 33 34 33 34 35 34 33 32 33 33 34 34 33 32 31 30 29 29 28 27 27 27 26 26 27 28 28 29 30 30 31 32 32 32 32 31 31 32 32 32 33 34 34 35 35 35 35 34 34 33 33 32 33 34 34 35 35 35 34
18 17 16 16 15 15 16 16 16 17 18 19 21 23 25 28 30 32 33 34 34 33 32 32 33 33 34 35 35 35 35 35 34 33 33 33 34 34 35 35 34 34 33 31 30 29 28 27 26 26 27 29 29 30 31 31 32 33 33 33 32 32 33 34 35 34 35 35 35 36 36 36 35 35 35 34 33 33 34 34 35 35 35 35 34
22 22 21 20 19 18 18 18 18 18 18 19 20 21 22 23 24 26 28 31 33 34 33 33 34 34 34 34 34 34 33 33 32 32 33 33 34 35 36 36 37 38 37 35 33 32 30 29 28 27 27 28 29 30 31 32 33 33 33 33 34 34 35 36 36 36 36 37 37 37 36 35 35 35 35 35 34 35 35 35 35 35 35 34 34
26 26 26 25 24 23 22 21 21 20 20 20 20 21 21 21 21 22 24 26 28 30 32 33 34 35 35 35 34 33 33 32 32 32 33 34 35 35 36 37 38 39 39 38 36 35 34 34 33 32 31 31 30 31 31 31 32 33 33 34 35 35 36 36 36 37 38 38 38 38 37 35 34 34 34 34 35 36 36 36 35 35 35 35 34
29 29 29 29 28 27 26 26 25 25 25 23 22 22 23 23 22 22 23 24 25 27 29 31 34 35 36 36 35 34 33 33 34 34 35 36 36 36 36 37 38 38 38 38 37 36 35 35 35 35 35 34 33 33 32 32 32 32 33 34 35 35 35 35 35 36 38 38 39 40 39 36 34 33 33 35 36 36 36 36 36 36 36 35 34
30 30 31 31 31 31 31 30 29 29 29 28 27 26 26 25 25 24 24 24 25 25 27 29 31 34 36 36 36 34 33 34 35 36 37 38 38 38 38 38 38 38 39 39 38 37 37 36 35 35 35 35 34 34 34 34 34 34 35 35 35 35 35 35 36 37 37 37 38 39 38 36 34 34 34 35 35 35 35 36 36 36 36 36 35
27 28 29 31 32 33 33 33 33 33 33 32 32 31 30 30 29 28 28 28 27 26 27 27 29 31 33 35 35 34 34 35 36 37 38 38 39 39 40 41 41 40 40 41 41 40 39 38 37 37 37 36 35 35 35 35 35 36 36 36 36 37 38 38 39 39 39 38 36 35 34 33 33 33 33 33 34 34 34 35 35 35 34 35 36
25 26 26 27 29 31 32 33 34 35 35 35 35 35 35 34 33 33 33 32 32 30 29 28 29 30 31 32 33 34 34 35 36 38 38 39 39 40 41 42 43 42 41 41 42 41 41 40 39 39 39 38 37 36 36 35 35 35 35 35 36 37 38 40 42 43 42 39 36 33 30 30 30 30 31 33 34 33 32 33 35 35 34 35 36
23 24 25 25 26 28 29 30 31 32 34 34 35 37 38 38 38 38 37 37 37 36 34 32 32 32 31 32 32 33 32 33 35 37 38 39 38 38 39 41 43 42 42 42 42 43 42 41 41 40 40 39 39 38 38 37 36 35 35 35 35 35 36 38 40 41 41 39 37 35 32 32 31 31 32 33 33 33 33 34 34 35 35 36 36
22 23 23 24 25 26 27 28 29 30 31 31 32 34 37 39 40 41 42 41 41 40 39 38 38 37 35 34 34 33 32 32 34 36 37 38 38 38 38 39 41 42 43 44 45 45 44 42 41 41 41 40 40 39 39 39 38 37 36 35 36 36 37 37 38 39 39 38 37 36 35 35 34 33 33 33 33 32 33 34 35 36 36 36 34
23 23 23 24 24 25 27 27 28 29 29 29 30 32 33 35 37 40 42 43 43 43 43 43 43 42 41 39 37 36 35 34 34 35 35 36 37 37 38 39 40 41 43 44 46 46 45 44 43 41 41 41 40 40 40 40 40 39 38 37 37 38 38 38 37 37 37 37 35 34 34 35 34 33 33 33 32 31 32 33 34 35 35 34 33
24 24 24 25 25 26 27 28 28 29 29 29 29 30 31 32 34 36 39 41 42 44 45 46 46 46 45 44 43 41 39 38 37 36 36 36 36 36 36 37 38 39 41 42 44 44 44 44 44 43 43 42 42 41 41 41 41 41 40 40 40 39 39 38 37 37 38 36 34 33 34 34 34 33 33 32 30 30 31 32 32 31 31 31 31
23 23 24 24 25 25 26 27 27 28 29 29 29 30 30 31 32 33 35 37 39 41 43 45 46 47 47 47 47 46 45 43 42 40 39 38 38 36 35 35 36 37 37 38 40 41 42 43 44 44 45 44 44 44 43 43 43 43 42 42 42 41 40 38 37 38 38 36 34 34 34 34 33 34 34 32 31 30 31 31 30 28 28 27 26
23 23 24 24 25 26 26 26 26 27 28 28 29 30 30 31 32 33 33 35 37 38 40 42 44 46 48 49 49 49 48 48 47 46 44 42 41 39 38 36 36 36 35 35 36 38 39 40 42 43 44 45 46 46 45 45 45 44 44 44 43 42 41 40 39 38 37 36 35 36 35 34 34 34 35 34 33 31 30 30 30 29 27 26 24
23 23 24 24 25 26 26 27 27 28 28 29 29 30 30 31 31 33 34 35 36 37 38 40 41 44 47 48 49 49 49 50 50 50 49 48 45 43 42 40 39 38 37 36 36 36 36 37 39 40 42 43 45 46 46 46 46 46 45 45 44 43 42 41 41 40 38 37 37 37 36 36 35 35 35 35 34 33 32 32 32 31 30 27 25
22 22 23 23 24 25 26 27 27 28 29 30 30 31 31 32 33 33 34 35 36 38 39 39 40 42 45 47 48 48 49 50 51 51 51 51 50 48 47 46 44 42 41 39 38 36 35 35 36 37 39 40 42 43 45 46 46 46 46 45 44 43 43 43 42 41 40 40 39 38 38 37 36 36 36 36 35 35 34 33 33 34 33 31 29
21 21 21 22 23 24 25 26 27 28 29 30 31 32 32 33 34 35 36 36 37 39 40 41 42 43 44 45 47 47 48 49 50 51 51 52 52 52 51 51 50 48 46 44 42 40 38 37 36 37 37 38 39 40 41 43 44 45 45 45 44 44 44 43 43 42 41 41 40 40 40 38 37 37 38 38 37 36 34 33 35 36 35 34 33
21 21 21 22 23 24 24 25 27 28 29 30 31 32 33 34 35 36 37 38 39 40 41 42 44 45 45 46 46 47 48 48 48 49 50 51 52 53 53 53 53 52 51 49 47 45 43 41 40 39 38 38 38 38 39 40 42 43 43 43 43 44 44 44 43 42 41 41 41 41 41 40 39 38 39 40 39 37 35 35 37 37 37 35 35
22 23 24 24 25 26 26 27 28 29 30 31 32 33 33 34 35 36 38 39 40 41 42 44 45 46 47 48 48 48 48 48 48 48 49 50 51 52 53 54 54 54 53 53 51 50 49 47 45 43 42 41 40 39 39 39 39 40 41 41 41 42 42 43 43 42 42 42 42 42 41 41 40 39 39 39 39 37 36 37 37 38 38 37 36
24 25 26 27 28 28 29 29 30 31 31 32 33 34 34 35 36 37 38 39 40 42 43 44 45 46 48 49 50 50 50 49 48 48 48 48 48 50 52 53 54 54 54 54 54 53 53 52 50 48 47 45 44 43 41 40 39 39 39 39 39 40 40 41 42 42 42 43 43 43 42 42 42 41 41 40 39 37 37 38 38 38 38 37 37
25 26 27 28 28 29 30 30 31 31 32 33 34 35 36 37 37 38 39 39 40 41 43 44 45 46 47 49 50 51 51 50 49 48 48 48 48 49 50 51 53 53 53 53 53 54 54 53 53 52 51 50 48 47 45 43 42 41 39 38 38 38 38 38 39 40 41 42 43 43 43 44 44 43 43 42 41 40 39 39 39 39 39 38 37
26 27 28 28 28 29 29 30 30 31 33 34 35 36 37 38 39 40 40 40 40 41 42 43 44 45 47 48 49 50 51 51 49 48 47 48 49 49 48 48 50 52 53 53 52 53 53 52 52 52 52 52 51 50 49 47 45 43 42 40 39 39 38 37 37 38 40 41 42 43 44 45 45 45 44 43 43 43 42 42 42 42 42 41 40
27 28 28 29 29 29 30 30 31 32 34 35 37 38 39 40 41 41 41 42 42 41 42 42 43 44 45 46 48 49 50 50 49 48 47 48 47 46 46 47 48 50 51 52 52 52 51 51 50 50 51 51 51 51 51 50 48 46 45 43 41 40 39 38 37 37 39 40 41 42 44 45 45 46 45 44 43 44 44 45 45 44 44 43 42
28 29 30 30 30 30 31 31 32 33 34 36 37 39 40 41 42 43 43 43 43 43 43 43 43 44 45 46 46 47 47 47 47 47 47 47 45 44 44 46 47 47 48 49 50 51 51 50 49 48 48 49 50 50 51 51 50 49 47 45 43 41 39 38 38 38 38 39 40 41 42 43 44 45 45 45 44 44 44 44 45 45 45 45 44
29 30 31 31 31 31 32 32 33 34 35 36 37 39 40 41 42 43 44 44 44 44 44 44 44 45 45 46 46 46 45 45 45 45 45 45 44 44 45 45 45 45 46 46 47 49 50 50 49 48 47 47 48 48 49 50 50 50 49 48 46 43 40 39 39 39 38 38 39 40 40 41 42 43 45 46 47 47 46 45 45 45 45 45 46
31 31 31 32 32 32 33 33 34 35 36 37 38 39 40 40 41 42 43 44 44 45 46 46 46 46 46 46 46 46 45 44 44 43 42 42 43 44 45 45 44 43 43 44 44 46 47 48 48 47 47 46 46 46 47 48 48 49 49 49 49 47 44 42 41 41 40 40 39 38 39 39 40 41 43 44 46 47 47 47 48 48 47 47 46
32 32 32 32 33 33 34 34 35 36 37 38 39 39 40 40 40 41 42 42 44 45 46 46 46 46 46 46 46 46 45 45 43 42 41 42 43 44 45 45 44 42 42 42 42 43 44 45 46 46 46 46 46 45 46 46 47 48 48 48 49 50 48 46 44 43 43 43 42 40 38 37 37 38 39 41 44 45 46 47 48 49 50 50 49
32 32 33 33 34 35 35 35 36 36 36 37 38 39 40 40 40 41 41 41 42 43 45 46 45 44 44 44 44 45 45 45 43 42 41 42 43 44 45 45 43 42 41 40 41 41 42 43 43 44 45 45 45 44 45 46 46 47 47 47 48 49 49 49 47 45 44 44 44 44 42 41 40 39 38 39 40 42 44 45 46 48 49 51 51
32 32 33 34 35 35 36 36 36 35 35 36 37 38 38 39 39 40 41 41 41 42 43 44 44 43 43 43 43 43 44 43 42 41 41 42 43 44 44 44 43 41 40 40 40 40 40 41 42 42 43 43 43 43 43 44 45 46 46 46 47 47 47 48 49 48 47 46 45 44 44 43 42 41 40 38 37 38 39 41 43 45 47 48 49
32 32 33 33 34 35 36 36 35 35 35 35 36 36 37 37 37 38 38 39 40 41 42 43 43 43 43 43 43 43 42 41 41 40 41 41 42 43 44 43 42 41 40 39 39 39 40 40 41 41 42 42 42 42 42 42 43 44 44 45 45 45 45 46 47 48 49 49 48 46 45 44 43 42 42 41 40 40 39 39 39 40 42 44 46
31 32 32 33 33 34 34 34 34 34 35 35 35 35 36 36 35 35 35 36 37 38 39 41 42 43 44 44 44 43 41 40 39 39 39 39 40 42 43 43 41 40 39 39 39 39 39 39 40 40 41 42 42 42 42 42 42 43 43 43 43 43 43 44 45 46 47 48 48 48 48 47 45 44 44 44 44 45 44 44 42 41 40 41 42
Wind_Direction
200 202 205 208 209 209 211 214 214 216 217 217 218 219 220 222 221 221 219 216 215 212 212 215 217 218 219 220 222 222 227 230 230 231 227 226 226 226 228 230 229 231 231 231 233 234 235 235 235 236 238 243 243 236 234 239 242 244 244 245 246 245 245 245 244 247 253 257 260 261 262 263 266 269 270 271 276 282 287 293 297 300 302 304 306
204 204 205 206 209 210 209 212 213 216 217 217 218 218 220 222 223 225 223 220 218 215 215 218 219 221 223 225 229 230 231 232 233 236 237 236 237 235 234 234 234 235 236 236 237 239 240 240 240 240 240 243 246 243 239 239 242 243 242 245 249 249 248 248 247 247 251 257 260 264 267 270 272 275 276 278 281 284 287 291 295 297 299 300 303
209 211 212 208 209 211 212 212 212 213 214 215 216 218 220 221 224 226 226 225 223 217 216 221 222 221 222 224 228 231 234 235 233 235 239 242 245 247 246 244 240 240 241 242 242 242 243 244 245 245 244 244 247 247 244 241 243 244 243 245 251 254 255 254 254 255 256 259 263 267 270 271 273 275 277 280 282 284 286 290 292 294 296 298 301
214 214 217 215 211 211 215 217 214 212 212 213 214 216 218 220 222 225 227 228 228 223 217 220 223 223 223 224 226 229 232 235 234 235 240 244 246 248 250 252 251 250 249 247 246 245 246 248 249 249 248 248 248 249 247 244 244 245 245 246 248 253 256 255 256 258 258 259 261 264 267 268 271 274 276 277 279 281 284 287 289 292 295 298 302
217 214 215 220 219 215 215 221 222 215 210 210 213 215 217 219 220 222 225 227 229 229 224 222 224 225 226 227 228 230 232 235 235 235 239 244 248 249 249 249 251 253 253 253 252 251 250 249 249 249 249 249 250 250 250 248 246 247 248 250 251 252 255 255 254 255 257 257 258 260 266 269 271 273 275 276 277 279 283 287 290 292 295 298 301
215 214 215 220 222 219 216 222 229 225 214 206 208 214 217 218 218 219 222 224 226 230 230 228 228 227 228 231 232 232 235 236 237 238 240 244 248 251 252 250 250 251 252 254 256 257 256 253 250 249 248 249 250 251 250 250 251 250 251 254 256 256 257 258 260 261 261 261 260 260 265 271 273 273 276 279 280 282 284 286 288 292 295 296 296
215 214 217 220 222 222 219 222 229 234 229 214 206 208 212 215 216 216 218 220 222 226 230 232 233 231 231 232 234 236 237 238 239 240 242 246 250 254 256 254 251 250 250 252 254 256 258 257 254 252 250 249 249 249 248 249 251 254 255 256 258 260 260 260 262 263 265 264 262 261 263 268 273 275 277 280 285 289 290 288 287 289 291 291 292
227 219 217 217 220 223 222 221 225 231 235 228 215 210 210 213 216 217 217 220 221 223 226 229 232 234 236 236 237 239 239 239 240 242 245 248 252 254 258 259 257 252 250 250 253 254 256 258 257 256 255 252 251 250 249 249 250 252 255 258 260 262 264 265 266 267 269 269 268 268 268 268 272 277 279 282 285 287 289 290 289 288 288 289 294
234 229 224 220 219 218 217 220 224 228 232 232 226 221 216 215 218 220 220 222 225 227 227 227 227 229 233 237 239 241 242 242 242 244 248 251 253 254 255 258 259 256 252 249 249 251 254 257 259 259 258 256 254 252 251 252 252 253 256 259 263 266 268 269 270 271 273 273 274 275 274 273 275 277 278 280 283 283 285 286 287 289 289 291 295
227 225 226 227 223 217 214 218 224 229 234 236 234 231 226 221 220 223 224 224 227 230 232 233 230 226 226 230 236 240 243 245 245 247 250 252 254 254 253 253 254 255 254 251 249 249 251 253 256 257 258 258 258 257 256 256 256 256 258 261 263 266 267 267 268 270 272 273 275 277 276 275 278 280 279 280 283 284 285 285 287 289 290 290 292
228 225 225 225 225 221 219 223 226 229 235 240 240 236 230 224 222 224 227 227 227 229 233 237 238 234 227 223 226 233 238 242 245 248 251 253 255 256 254 251 250 250 252 253 252 251 251 253 255 256 257 257 259 261 261 263 263 263 263 263 264 265 266 266 267 269 271 272 274 275 275 275 278 280 281 283 285 286 286 287 288 289 289 290 292
229 229 227 223 224 225 226 228 229 228 229 233 236 235 230 227 227 228 229 230 231 232 233 237 242 244 239 230 225 224 227 231 236 242 248 251 254 256 255 253 251 250 250 252 253 254 254 255 255 255 257 258 259 260 259 260 262 263 263 264 264 265 267 269 271 271 271 271 271 271 273 276 276 277 282 285 285 284 285 286 288 288 288 289 293
225 225 224 221 221 223 225 227 229 231 231 231 233 233 232 232 233 232 232 233 235 236 237 238 241 246 249 246 239 230 225 223 226 231 238 244 248 251 252 252 253 253 254 254 254 256 256 258 258 258 258 259 260 261 261 260 259 259 259 259 259 261 263 266 269 271 272 273 272 273 276 279 278 280 287 288 285 284 285 285 286 286 287 290 294
225 223 221 220 221 223 224 225 226 229 230 231 232 233 234 235 236 237 237 238 239 240 240 240 240 242 246 249 249 244 237 230 227 226 228 233 240 245 248 250 252 253 255 256 257 258 259 260 261 260 260 260 260 262 263 263 262 260 259 258 256 257 258 261 264 267 271 273 275 276 278 281 281 283 289 290 287 287 287 287 287 287 289 292 295
226 228 226 225 226 227 227 227 229 228 226 225 228 232 234 236 238 239 240 241 243 244 244 243 241 241 242 245 248 248 246 243 239 234 230 231 235 240 245 248 251 252 253 254 256 258 259 260 259 259 258 257 258 260 262 264 263 261 259 258 256 255 255 257 260 263 267 270 274 276 278 281 282 283 286 287 287 288 288 288 288 290 292 294 295
229 231 232 232 232 233 233 233 233 233 229 224 222 226 232 236 238 239 239 241 243 245 247 246 244 243 243 245 247 248 248 248 248 246 244 242 241 242 243 245 248 251 252 253 254 255 256 256 255 254 253 252 252 254 258 261 262 262 261 260 259 257 255 256 259 263 266 270 273 276 278 279 280 280 282 283 284 286 286 286 289 292 295 295 297
236 237 237 237 236 236 238 238 237 237 236 231 225 225 231 238 241 241 241 240 241 243 245 245 246 246 245 247 249 250 251 252 252 252 253 254 253 250 247 247 248 250 251 252 253 254 255 256 256 256 253 250 248 249 251 255 257 260 262 263 263 262 261 262 265 267 270 273 275 275 276 276 277 278 278 279 280 282 283 286 289 292 294 295 299
246 247 247 246 243 241 240 241 243 243 243 242 237 233 236 241 244 244 243 242 240 241 242 243 245 247 248 249 250 252 254 255 255 254 255 258 261 261 258 255 253 253 253 252 253 254 255 256 258 260 260 257 254 252 251 253 254 255 257 259 260 261 261 263 265 267 269 270 272 273 274 275 276 276 276 277 278 280 282 286 290 291 293 296 299
248 251 254 253 253 251 247 246 247 248 248 247 244 241 241 244 245 245 245 245 243 241 240 241 243 245 248 250 251 253 255 256 256 257 257 258 262 265 265 264 261 258 257 255 253 253 254 254 255 258 261 262 261 259 257 256 255 254 254 255 256 257 259 261 261 262 263 264 266 269 270 272 273 275 276 277 278 279 282 285 288 290 291 293 295
243 248 251 253 255 256 254 253 251 251 250 247 245 244 245 246 247 247 246 246 246 244 242 241 242 244 247 249 251 252 254 256 256 257 257 257 259 260 262 264 264 262 260 258 255 253 253 252 251 253 256 259 261 261 261 261 260 259 257 256 255 257 261 263 263 263 263 263 264 265 267 269 271 273 276 278 279 281 283 285 286 288 289 290 291
241 244 246 249 251 252 253 254 253 253 253 249 246 245 246 247 248 248 248 248 247 246 244 244 244 245 246 248 250 251 253 255 256 256 256 257 257 257 258 260 262 263 263 262 260 257 256 255 254 254 255 257 259 260 261 263 264 265 264 263 263 264 267 269 269 269 268 267 267 267 268 270 271 273 276 278 279 281 282 283 284 285 286 287 289
239 241 242 245 247 248 249 251 252 254 255 255 253 251 249 249 248 248 248 249 248 247 246 245 245 244 245 246 248 251 254 257 257 256 255 256 257 257 257 258 258 258 260 262 262 261 260 260 260 260 260 259 259 260 260 262 264 266 268 269 271 272 273 274 274 273 273 272 272 272 272 273 274 275 275 276 278 278 279 279 280 281 283 285 286
241 240 240 241 243 246 247 248 249 251 252 253 256 257 256 254 252 251 250 249 248 248 247 246 245 243 242 243 245 248 251 255 257 257 256 256 257 259 260 259 257 256 257 258 259 260 260 261 262 262 261 260 261 261 262 262 262 264 267 269 270 271 272 273 275 276 276 276 276 275 275 276 277 277 277 277 276 275 275 276 277 279 280 282 283
249 246 244 242 242 244 246 247 248 249 249 250 252 254 256 256 255 255 254 252 250 248 248 247 246 244 241 240 241 244 247 250 253 255 256 257 257 259 260 260 258 256 256 257 257 258 259 260 261 260 259 259 261 263 264 263 262 262 264 265 266 267 268 271 274 275 276 277 277 277 277 277 278 279 279 279 277 276 277 278 279 279 280 280 281
255 254 251 248 246 245 245 247 248 248 249 249 250 251 254 255 256 255 255 254 253 251 250 249 248 247 245 243 243 244 247 249 251 252 254 255 257 257 258 259 258 257 258 258 259 259 259 260 260 259 259 259 260 261 261 261 262 263 264 264 265 266 268 270 272 274 275 277 278 278 278 278 279 279 279 279 279 280 280 280 280 281 282 283 284
254 255 255 254 252 249 247 247 247 248 249 250 250 251 252 253 255 255 255 254 253 252 252 251 251 251 251 251 251 250 250 252 253 252 252 253 255 256 257 258 258 258 259 261 261 261 262 262 262 262 262 262 262 262 261 260 261 262 264 265 266 267 267 269 270 271 271 274 277 278 278 278 279 278 278 278 280 281 282 282 282 284 285 287 286
257 258 258 257 256 255 253 251 249 249 250 250 250 251 251 252 253 254 255 254 253 252 251 251 253 254 255 256 257 257 256 255 255 253 252 251 252 253 255 257 258 258 260 261 262 262 262 263 263 264 264 264 264 265 265 264 263 263 263 264 265 266 267 267 268 267 267 271 276 277 276 276 277 278 279 278 278 278 279 279 280 281 283 283 282
261 261 261 261 261 259 258 256 254 252 251 251 251 252 252 252 252 253 254 254 253 252 251 251 252 254 255 256 258 259 259 259 258 257 255 252 250 250 251 254 257 259 262 264 264 263 262 262 261 262 263 264 264 265 266 267 267 266 265 265 266 268 268 267 267 267 268 271 273 272 271 273 276 277 278 276 275 275 274 274 276 279 280 279 280
262 261 262 262 263 263 262 261 259 257 255 253 253 253 253 253 253 252 252 253 254 254 253 252 253 253 253 255 256 256 256 258 259 259 258 257 254 251 249 251 254 256 259 261 262 262 261 261 261 261 262 263 264 264 265 266 267 266 266 266 268 269 269 268 267 267 269 270 270 268 268 271 273 274 274 274 274 274 272 272 276 278 279 279 281
262 261 261 261 262 264 264 264 263 262 260 258 256 254 254 255 255 254 253 253 254 255 255 255 255 254 253 253 254 254 253 253 255 257 259 260 259 255 252 252 253 253 253 254 257 259 260 260 260 260 261 262 263 263 264 265 266 265 265 266 267 268 269 268 268 268 269 269 267 265 266 269 271 272 273 275 276 275 273 274 276 276 276 278 281
262 261 260 260 260 262 263 264 265 264 264 263 260 257 256 256 257 257 256 255 255 256 256 257 257 257 256 254 254 255 254 252 251 253 256 258 259 258 256 255 255 255 254 254 256 258 260 261 260 259 260 261 261 262 263 264 265 266 266 265 266 267 269 271 271 271 270 266 264 264 266 268 271 272 275 277 277 276 274 275 275 274 274 274 275
262 263 262 261 259 259 260 262 264 265 266 266 265 263 261 258 258 259 260 260 259 258 257 257 257 258 259 257 256 256 256 255 252 251 252 254 256 257 258 258 258 258 257 258 259 259 260 261 260 259 259 259 259 260 261 263 265 266 267 267 266 266 268 270 271 271 268 265 263 263 265 267 270 272 274 275 275 273 271 270 271 272 272 271 271
263 263 264 263 262 261 261 261 262 263 265 266 266 266 265 264 262 260 260 261 262 262 261 260 259 258 259 259 258 258 257 257 256 254 253 253 254 256 256 257 257 258 258 259 260 260 260 260 260 260 260 259 259 260 260 261 263 264 265 267 267 267 268 269 269 270 269 266 264 264 266 268 271 272 273 272 272 271 269 268 269 271 272 272 272
262 263 263 264 265 265 265 265 265 264 264 265 265 265 265 265 264 263 261 260 260 262 263 264 263 262 260 259 259 259 258 259 259 258 256 255 255 255 255 255 256 257 258 258 259 260 260 261 261 261 261 261 261 261 260 261 261 262 263 265 266 267 268 268 268 268 269 268 267 267 268 271 273 273 272 270 270 269 269 269 269 270 270 270 268
260 261 262 263 265 266 267 268 268 267 266 266 265 265 265 264 264 264 263 262 261 260 261 262 264 265 264 263 261 260 259 259 259 260 260 260 258 257 257 257 257 257 258 258 259 259 260 260 261 261 261 261 261 261 261 261 261 261 262 262 263 264 265 265 266 266 268 269 270 270 272 274 275 275 274 272 271 271 270 269 269 268 267 265 263
259 260 262 264 265 267 269 270 270 270 270 269 268 267 266 266 265 264 263 262 262 262 261 260 260 262 264 265 265 264 262 261 260 260 261 263 263 262 260 259 258 258 258 259 260 260 260 260 260 261 261 262 262 261 261 262 262 262 262 262 261 261 262 263 264 265 267 269 271 272 272 273 275 276 275 275 274 274 274 271 268 266 265 265 262
260 262 264 266 268 270 271 272 273 273 273 272 271 270 268 267 266 266 264 263 262 262 262 262 261 260 261 263 264 264 264 263 262 261 260 261 263 264 263 261 259 258 258 259 260 261 261 261 261 261 262 263 263 263 262 262 262 262 262 262 261 260 260 262 263 264 265 267 268 269 270 271 272 274 274 274 274 274 274 270 264 262 263 265 264
262 265 268 270 272 274 275 276 277 277 277 276 275 274 272 271 269 268 267 266 264 263 262 262 261 261 261 261 262 262 263 263 263 262 260 260 260 262 263 263 262 260 259 259 260 261 262 261 261 261 262 264 265 265 264 263 263 263 262 262 261 260 260 261 262 263 264 266 267 268 270 271 272 273 273 274 274 273 270 265 262 261 261 262 263
267 269 272 275 276 278 279 280 280 280 279 279 278 277 276 274 273 271 270 268 267 266 264 263 262 262 262 262 262 261 261 262 262 262 261 260 259 259 260 262 263 263 261 260 260 261 262 262 262 262 263 264 266 267 267 266 264 264 263 262 261 260 260 260 261 261 262 264 266 267 269 270 271 272 272 272 273 272 267 263 262 261 260 260 261
271 274 276 278 279 280 281 281 282 282 282 281 281 280 279 277 276 274 272 271 269 268 267 265 264 263 263 263 263 262 262 262 262 262 262 262 261 260 259 260 261 262 262 262 262 262 262 263 263 264 264 265 266 267 269 269 268 266 264 263 262 261 260 260 260 260 260 261 263 265 267 268 270 270 270 270 270 269 266 263 261 260 261 261 262
272 275 277 278 279 280 281 282 283 284 285 285 284 283 282 281 279 278 276 275 273 271 270 269 268 267 266 264 264 264 264 264 264 263 261 261 261 260 260 259 260 261 261 262 263 263 264 264 264 265 265 266 266 267 269 270 271 270 268 266 264 263 261 261 260 260 259 259 260 262 264 265 267 268 269 268 267 267 266 264 262 261 262 263 264
270 272 274 276 277 278 280 282 284 285 286 286 286 285 284 283 282 281 279 278 276 275 273 272 271 271 270 268 267 266 265 266 266 266 264 261 260 260 260 260 259 259 260 260 261 262 263 264 265 265 266 266 267 267 268 269 270 271 272 270 268 266 264 264 262 261 260 259 259 260 262 263 265 267 268 269 268 267 267 266 264 263 263 263 264
271 272 273 274 275 277 279 281 283 284 285 285 285 285 284 283 282 281 280 279 278 276 275 274 273 273 272 272 271 269 268 268 268 268 266 264 262 261 261 260 259 259 259 260 260 261 262 262 263 264 265 266 267 267 267 268 268 270 271 272 271 269 268 267 266 265 263 261 260 260 261 263 265 267 269 269 270 269 269 268 268 267 266 265 265
273 274 274 274 274 276 278 280 281 282 283 283 284 283 283 282 281 280 280 279 278 277 276 275 274 273 273 273 273 272 272 271 271 270 268 266 264 262 259 258 258 258 259 259 260 261 261 262 262 263 263 264 265 266 267 267 267 268 269 270 271 270 268 268 268 268 267 265 263 263 263 264 266 267 268 269 269 270 270 270 270 269 268 267 267
275 274 274 274 274 275 276 278 280 282 283 283 282 281 280 280 279 279 278 278 277 276 275 274 273 273 273 274 274 274 274 273 273 272 271 268 264 260 259 258 257 257 258 259 260 261 261 262 262 263 263 263 264 265 266 266 266 267 267 267 268 269 267 264 264 265 267 267 266 266 265 266 267 268 269 269 269 270 270 270 270 270 269 269 269
276 275 275 274 275 275 277 278 280 281 282 282 282 281 280 278 278 277 276 275 274 274 273 273 272 272 272 273 273 274 274 273 273 273 271 267 262 259 258 258 257 257 257 258 259 260 262 263 263 264 264 264 263 264 265 266 266 266 266 265 265 266 266 264 262 261 262 264 265 266 266 267 268 270 271 272 272 272 272 272 271 271 271 271 271
278 277 277 276 276 277 278 279 280 281 281 281 281 281 280 279 278 277 275 273 272 271 271 271 271 271 272 272 272 272 272 272 272 271 268 264 260 257 257 257 256 256 256 257 258 259 261 262 263 264 264 265 264 264 264 265 265 265 266 265 265 264 264 264 263 261 260 262 264 264 265 266 268 270 273 274 275 275 275 275 274 273 273 273 273
279 279 279 279 279 279 280 280 281 281 281 281 280 280 279 279 279 278 276 274 271 269 268 267 268 269 270 270 269 269 269 270 270 268 265 261 257 256 255 255 255 255 255 256 257 258 259 260 262 263 263 264 264 264 265 265 265 265 266 266 266 265 264 264 264 263 262 263 264 265 265 265 266 268 270 273 276 277 277 277 276 275 274 274 274
280 280 281 281 281 281 281 282 282 282 281 280 279 279 279 279 278 278 277 276 274 271 267 264 263 264 267 268 268 268 268 268 268 267 264 260 256 254 253 253 254 254 255 255 256 256 257 257 258 260 261 262 263 264 264 265 265 266 266 266 267 266 265 264 264 263 263 263 265 266 266 265 265 265 265 268 271 275 277 278 277 276 275 275 275
282 282 282 282 282 282 282 283 283 283 281 280 279 278 277 277 277 278 278 277 275 272 269 265 261 261 263 265 266 267 268 268 267 267 265 262 257 253 251 252 253 254 254 255 255 255 256 256 257 257 258 259 260 261 262 263 263 264 265 266 266 266 265 265 264 263 263 263 264 265 266 266 265 265 265 266 268 271 275 278 279 279 277 275 274
285 284 284 284 283 282 282 283 283 282 282 281 279 277 275 275 276 277 279 278 276 273 269 266 263 261 260 262 264 266 267 267 268 267 266 263 259 254 251 251 253 254 255 256 256 256 256 256 256 256 257 257 257 258 259 260 261 261 262 263 264 264 264 263 263 262 262 263 263 263 264 266 266 266 267 269 270 271 274 277 279 281 281 278 274
Height
3226 3227 3229 3230 3232 3233 3235 3237 3238 3239 3240 3241 3243 3244 3245 3246 3248 3249 3250 3251 3252 3253 3253 3254 3254 3255 3255 3255 3256 3256 3256 3257 3257 3258 3258 3259 3259 3260 3261 3261 3262 3263 3263 3264 3264 3265 3266 3267 3268 3268 3269 3269 3270 3270 3271 3271 3271 3272 3272 3272 3272 3272 3273 3273 3273 3273 3273 3274 3273 3273 3273 3273 3273 3273 3273 3273 3273 3272 3272 3271 3270 3269 3268 3267 3266
3225 3226 3227 3229 3230 3232 3233 3234 3236 3237 3239 3240 3242 3243 3244 3245 3246 3248 3249 3250 3251 3252 3252 3253 3253 3254 3255 3255 3255 3256 3256 3256 3257 3257 3258 3258 3259 3259 3260 3260 3261 3262 3262 3263 3263 3264 3265 3266 3266 3267 3268 3268 3269 3269 3270 3270 3270 3271 3271 3271 3271 3271 3271 3271 3271 3272 3272 3272 3272 3272 3272 3272 3271 3271 3271 3271 3270 3270 3270 3269 3269 3268 3267 3266 3265
3224 3225 3226 3227 3229 3230 3232 3233 3234 3235 3237 3238 3240 3242 3243 3244 3245 3246 3248 3248 3249 3250 3251 3252 3252 3253 3254 3254 3255 3255 3256 3256 3256 3257 3257 3257 3258 3258 3259 3259 3260 3261 3261 3262 3262 3263 3264 3264 3265 3266 3266 3267 3268 3268 3268 3269 3269 3269 3270 3270 3270 3270 3270 3270 3270 3270 3270 3270 3270 3270 3270 3269 3269 3269 3269 3268 3268 3268 3268 3268 3267 3266 3265 3264 3263
3223 3224 3225 3226 3227 3228 3230 3231 3232 3233 3234 3236 3239 3240 3242 3243 3244 3245 3246 3247 3248 3249 3250 3250 3251 3252 3253 3253 3254 3255 3255 3255 3256 3256 3256 3257 3257 3257 3258 3258 3259 3260 3260 3261 3261 3262 3262 3263 3264 3264 3265 3266 3266 3267 3267 3267 3268 3268 3268 3268 3268 3268 3268 3268 3268 3268 3268 3268 3269 3268 3268 3267 3267 3267 3267 3266 3266 3266 3265 3265 3265 3264 3263 3262 3261
3221 3222 3223 3225 3226 3227 3228 3229 3231 3231 3232 3234 3236 3239 3240 3241 3243 3244 3245 3245 3246 3247 3248 3249 3250 3250 3251 3252 3253 3253 3254 3254 3255 3255 3255 3256 3256 3256 3257 3257 3258 3258 3259 3259 3260 3260 3261 3261 3262 3262 3263 3264 3265 3265 3265 3266 3266 3267 3267 3267 3267 3267 3267 3267 3267 3267 3267 3267 3267 3266 3266 3266 3266 3265 3265 3264 3263 3264 3263 3263 3262 3261 3260 3259 3258
3218 3220 3220 3222 3223 3225 3226 3227 3229 3231 3231 3231 3233 3235 3238 3239 3240 3242 3243 3244 3245 3245 3246 3247 3248 3249 3250 3250 3251 3252 3252 3253 3253 3253 3254 3254 3255 3255 3255 3256 3256 3257 3258 3258 3259 3259 3259 3260 3260 3261 3261 3262 3263 3263 3264 3264 3265 3265 3266 3266 3266 3266 3266 3265 3265 3265 3265 3265 3265 3265 3264 3264 3264 3264 3263 3261 3260 3261 3260 3260 3259 3258 3257 3256 3255
3213 3215 3218 3219 3221 3222 3223 3225 3227 3230 3231 3230 3230 3232 3234 3237 3238 3239 3240 3241 3242 3243 3244 3245 3246 3247 3248 3248 3249 3250 3250 3251 3252 3252 3252 3253 3253 3253 3254 3254 3255 3256 3256 3257 3257 3257 3258 3259 3259 3259 3260 3260 3261 3262 3262 3262 3263 3263 3264 3264 3264 3264 3264 3264 3264 3263 3263 3263 3263 3263 3263 3262 3261 3261 3261 3259 3258 3258 3257 3256 3256 3256 3255 3253 3252
3213 3214 3215 3216 3217 3219 3221 3223 3225 3228 3230 3231 3231 3231 3232 3234 3236 3237 3238 3239 3240 3241 3242 3243 3244 3245 3245 3246 3247 3248 3248 3249 3250 3250 3251 3251 3251 3252 3252 3252 3253 3254 3254 3255 3255 3256 3256 3257 3257 3258 3258 3259 3259 3260 3260 3261 3261 3262 3262 3262 3262 3262 3262 3262 3262 3261 3261 3261 3260 3260 3260 3260 3259 3259 3258 3257 3256 3256 3254 3252 3252 3252 3251 3250 3250
3214 3215 3215 3214 3215 3217 3219 3220 3223 3225 3228 3230 3230 3230 3231 3232 3234 3236 3237 3238 3239 3240 3240 3241 3242 3242 3243 3244 3245 3245 3246 3247 3248 3249 3249 3249 3250 3250 3250 3251 3251 3251 3252 3253 3253 3254 3254 3255 3256 3256 3257 3257 3258 3258 3259 3259 3259 3260 3260 3260 3260 3260 3260 3259 3259 3259 3258 3258 3258 3258 3257 3257 3257 3256 3256 3255 3254 3253 3252 3250 3249 3248 3248 3247 3247
3211 3212 3213 3213 3214 3215 3217 3218 3220 3223 3226 3228 3229 3231 3232 3232 3233 3234 3235 3236 3237 3238 3239 3240 3240 3240 3241 3241 3242 3243 3244 3245 3246 3247 3247 3248 3248 3248 3248 3249 3249 3249 3250 3250 3251 3252 3252 3253 3254 3254 3255 3255 3256 3256 3257 3257 3257 3258 3258 3258 3258 3258 3257 3257 3257 3257 3256 3256 3256 3255 3255 3254 3254 3254 3253 3253 3252 3250 3249 3248 3246 3246 3245 3244 3244
3208 3209 3211 3212 3213 3214 3215 3217 3219 3221 3224 3227 3229 3231 3232 3232 3231 3232 3233 3233 3234 3236 3237 3237 3238 3238 3238 3238 3239 3240 3241 3242 3243 3244 3245 3245 3246 3246 3246 3247 3247 3247 3248 3248 3249 3250 3250 3251 3251 3252 3252 3253 3253 3254 3254 3255 3255 3255 3256 3256 3256 3255 3255 3254 3254 3254 3254 3253 3253 3253 3252 3252 3252 3251 3250 3250 3249 3248 3247 3245 3244 3243 3242 3240 3240
3205 3207 3208 3209 3210 3211 3213 3215 3217 3219 3221 3223 3225 3228 3229 3229 3228 3229 3230 3230 3231 3233 3234 3234 3235 3236 3236 3236 3236 3237 3238 3239 3240 3241 3242 3242 3243 3243 3244 3244 3245 3245 3246 3246 3247 3248 3248 3248 3249 3249 3250 3250 3251 3251 3252 3252 3252 3253 3253 3253 3253 3253 3252 3252 3252 3251 3251 3250 3250 3250 3250 3249 3249 3249 3248 3247 3246 3245 3244 3243 3241 3240 3239 3237 3237
3202 3203 3205 3206 3207 3208 3210 3212 3213 3215 3217 3219 3221 3223 3224 3225 3225 3226 3227 3227 3228 3229 3230 3231 3231 3232 3233 3234 3235 3235 3235 3236 3237 3238 3238 3239 3240 3240 3241 3242 3242 3243 3244 3244 3245 3245 3246 3246 3247 3247 3247 3248 3248 3248 3249 3249 3249 3250 3250 3250 3250 3250 3250 3249 3249 3248 3248 3247 3247 3247 3247 3246 3246 3246 3246 3244 3242 3241 3240 3240 3238 3237 3235 3235 3234
3199 3200 3201 3202 3204 3206 3207 3209 3210 3212 3213 3215 3217 3219 3220 3221 3222 3223 3224 3225 3225 3225 3226 3227 3228 3229 3230 3231 3232 3233 3233 3233 3233 3234 3235 3236 3237 3237 3238 3238 3239 3240 3241 3241 3242 3242 3243 3244 3244 3245 3245 3245 3246 3246 3246 3246 3246 3246 3246 3246 3246 3247 3246 3246 3246 3246 3245 3244 3243 3243 3244 3243 3242 3242 3242 3241 3239 3238 3237 3236 3235 3233 3232 3232 3231
3198 3199 3199 3200 3202 3203 3205 3206 3208 3209 3209 3210 3212 3214 3215 3217 3218 3219 3220 3221 3222 3222 3223 3224 3225 3226 3226 3227 3228 3229 3230 3231 3231 3231 3232 3233 3234 3234 3235 3235 3236 3237 3237 3238 3238 3239 3240 3240 3241 3241 3242 3242 3243 3243 3243 3243 3243 3243 3243 3243 3243 3243 3243 3243 3243 3243 3242 3241 3240 3240 3240 3240 3239 3239 3239 3238 3236 3235 3233 3232 3231 3230 3229 3228 3228
3198 3198 3199 3200 3201 3202 3203 3204 3205 3206 3206 3206 3207 3209 3211 3213 3214 3215 3216 3217 3218 3219 3220 3221 3222 3223 3223 3224 3224 3226 3227 3228 3229 3229 3230 3231 3231 3232 3232 3232 3232 3233 3234 3234 3235 3235 3236 3236 3237 3237 3238 3239 3240 3240 3240 3240 3239 3239 3239 3239 3240 3240 3240 3241 3241 3240 3240 3239 3238 3237 3237 3237 3236 3235 3235 3234 3233 3232 3230 3228 3228 3228 3226 3225 3224
3196 3197 3197 3198 3199 3199 3200 3201 3202 3203 3204 3204 3203 3205 3207 3209 3210 3211 3213 3214 3215 3215 3216 3217 3218 3219 3220 3221 3222 3223 3224 3225 3225 3226 3227 3228 3229 3229 3229 3229 3229 3230 3230 3231 3232 3232 3233 3233 3233 3234 3234 3235 3236 3236 3237 3236 3235 3235 3235 3235 3236 3236 3236 3237 3238 3237 3237 3236 3235 3235 3234 3234 3233 3232 3231 3231 3230 3228 3226 3225 3226 3225 3223 3222 3222
3195 3195 3196 3196 3196 3197 3197 3198 3198 3199 3200 3201 3201 3202 3204 3205 3207 3208 3209 3210 3211 3212 3212 3213 3214 3215 3216 3218 3219 3220 3221 3221 3221 3222 3224 3225 3225 3226 3226 3226 3226 3227 3227 3228 3229 3229 3230 3231 3231 3231 3231 3232 3233 3233 3233 3232 3231 3231 3231 3231 3231 3231 3232 3233 3234 3233 3233 3232 3231 3231 3230 3230 3230 3229 3228 3228 3227 3226 3224 3223 3223 3222 3221 3220 3219
3194 3194 3194 3194 3195 3195 3195 3195 3196 3196 3197 3198 3199 3199 3200 3202 3203 3204 3205 3206 3207 3208 3208 3209 3210 3211 3212 3214 3216 3217 3217 3216 3217 3219 3221 3221 3221 3221 3221 3221 3222 3223 3223 3224 3225 3225 3226 3227 3228 3228 3228 3229 3229 3230 3230 3229 3228 3228 3228 3227 3226 3227 3228 3229 3229 3229 3228 3227 3227 3226 3226 3226 3226 3225 3225 3225 3225 3224 3222 3221 3221 3219 3218 3217 3217
3193 3193 3193 3193 3193 3193 3193 3193 3194 3194 3195 3195 3196 3197 3198 3198 3199 3200 3200 3202 3203 3204 3205 3205 3206 3208 3209 3210 3212 3212 3212 3212 3214 3216 3216 3217 3217 3217 3217 3217 3218 3218 3219 3219 3219 3220 3221 3222 3223 3224 3224 3225 3225 3226 3226 3225 3224 3224 3224 3223 3222 3223 3224 3224 3224 3223 3223 3222 3222 3221 3221 3221 3221 3221 3221 3222 3222 3221 3220 3219 3218 3216 3214 3214 3214
3191 3192 3192 3192 3192 3192 3192 3192 3192 3192 3193 3193 3194 3194 3194 3195 3195 3196 3197 3198 3199 3200 3201 3201 3202 3203 3204 3205 3207 3207 3207 3208 3210 3211 3212 3212 3213 3213 3214 3214 3214 3214 3214 3214 3215 3215 3216 3217 3218 3220 3220 3220 3220 3221 3221 3221 3220 3219 3219 3219 3219 3220 3220 3219 3218 3218 3217 3217 3217 3216 3216 3216 3216 3217 3217 3217 3217 3217 3216 3215 3214 3212 3211 3210 3210
3189 3190 3190 3191 3191 3191 3191 3191 3191 3191 3191 3191 3191 3191 3191 3191 3192 3193 3193 3194 3195 3196 3197 3198 3198 3198 3199 3201 3202 3202 3203 3204 3206 3207 3208 3208 3209 3209 3210 3210 3211 3210 3209 3210 3210 3211 3212 3213 3214 3215 3215 3215 3216 3216 3216 3216 3216 3215 3215 3215 3215 3216 3215 3214 3213 3213 3213 3212 3212 3211 3211 3212 3212 3212 3212 3212 3212 3212 3211 3210 3209 3208 3207 3207 3206
3187 3187 3188 3188 3189 3189 3189 3189 3189 3189 3189 3189 3189 3188 3188 3188 3188 3189 3189 3190 3191 3192 3193 3193 3194 3194 3195 3196 3197 3198 3199 3200 3201 3202 3203 3204 3204 3205 3205 3206 3207 3206 3205 3205 3206 3207 3207 3208 3209 3209 3210 3210 3210 3211 3211 3211 3211 3210 3210 3211 3211 3211 3210 3209 3208 3208 3208 3208 3207 3206 3207 3207 3208 3208 3208 3208 3207 3206 3205 3205 3205 3204 3203 3203 3202
3183 3183 3184 3185 3186 3186 3187 3187 3187 3187 3187 3187 3187 3186 3186 3185 3185 3186 3186 3186 3187 3188 3188 3189 3190 3190 3191 3191 3192 3194 3195 3195 3196 3197 3198 3199 3199 3200 3200 3201 3202 3201 3201 3201 3201 3202 3202 3203 3203 3204 3204 3204 3205 3205 3205 3206 3206 3206 3206 3206 3206 3205 3205 3204 3204 3203 3202 3202 3201 3201 3202 3203 3203 3203 3203 3203 3202 3201 3200 3200 3200 3199 3199 3198 3198
3178 3178 3179 3180 3181 3182 3183 3183 3184 3184 3184 3184 3184 3184 3183 3183 3182 3182 3183 3183 3183 3184 3184 3185 3185 3186 3186 3187 3188 3189 3190 3190 3191 3192 3192 3193 3193 3194 3195 3196 3197 3197 3197 3197 3197 3197 3197 3198 3198 3199 3199 3199 3199 3199 3200 3200 3201 3201 3201 3201 3200 3200 3200 3200 3200 3198 3197 3197 3196 3196 3197 3198 3199 3199 3198 3198 3197 3196 3196 3195 3195 3194 3194 3193 3193
3174 3174 3174 3175 3176 3177 3178 3179 3179 3180 3180 3181 3181 3181 3181 3180 3180 3180 3180 3180 3180 3180 3181 3181 3181 3181 3182 3182 3183 3184 3185 3185 3186 3186 3186 3187 3188 3189 3189 3190 3191 3192 3192 3193 3193 3193 3193 3194 3194 3194 3194 3195 3195 3195 3195 3196 3196 3196 3196 3196 3196 3195 3195 3195 3194 3193 3192 3192 3192 3191 3192 3193 3193 3193 3193 3192 3192 3192 3192 3190 3190 3189 3189 3188 3187
3170 3170 3170 3170 3171 3171 3172 3173 3174 3175 3176 3177 3177 3178 3178 3178 3178 3177 3177 3177 3177 3177 3178 3178 3178 3178 3178 3178 3179 3180 3180 3180 3180 3180 3180 3181 3182 3183 3184 3184 3185 3185 3186 3187 3188 3189 3189 3189 3189 3189 3189 3190 3190 3190 3190 3191 3191 3191 3191 3191 3191 3190 3190 3189 3188 3187 3187 3188 3187 3187 3187 3188 3188 3188 3187 3186 3186 3186 3186 3185 3184 3184 3184 3182 3180
3167 3167 3167 3167 3167 3167 3167 3168 3169 3170 3171 3172 3173 3174 3174 3174 3174 3174 3174 3174 3173 3174 3174 3175 3175 3175 3174 3174 3175 3175 3176 3175 3175 3175 3175 3175 3176 3178 3178 3178 3178 3179 3181 3181 3182 3183 3183 3183 3183 3183 3183 3184 3184 3184 3185 3185 3186 3186 3186 3186 3186 3185 3185 3184 3182 3182 3182 3183 3182 3182 3182 3183 3182 3182 3181 3180 3180 3181 3181 3179 3178 3178 3178 3177 3175
3164 3164 3164 3164 3164 3163 3163 3164 3165 3166 3167 3168 3169 3169 3169 3170 3170 3170 3170 3170 3170 3170 3171 3171 3171 3171 3171 3171 3171 3171 3172 3172 3171 3170 3170 3170 3171 3172 3172 3172 3173 3174 3174 3175 3175 3176 3177 3177 3177 3178 3178 3178 3178 3178 3179 3179 3180 3180 3180 3180 3180 3179 3179 3178 3177 3177 3177 3177 3176 3176 3177 3177 3177 3176 3175 3174 3174 3175 3175 3174 3173 3173 3173 3171 3170
3160 3161 3161 3161 3161 3160 3160 3160 3160 3161 3162 3163 3164 3164 3165 3165 3165 3165 3165 3166 3166 3166 3166 3167 3167 3166 3167 3167 3167 3167 3168 3168 3167 3167 3166 3165 3166 3167 3167 3167 3167 3168 3169 3169 3169 3169 3170 3171 3171 3172 3172 3172 3172 3173 3173 3173 3173 3174 3174 3174 3174 3173 3173 3172 3172 3172 3172 3171 3171 3171 3171 3171 3171 3170 3169 3169 3169 3170 3170 3169 3169 3168 3167 3166 3165
3156 3157 3157 3158 3158 3157 3157 3157 3157 3157 3157 3158 3159 3159 3160 3160 3160 3160 3160 3161 3162 3162 3161 3161 3161 3161 3162 3163 3163 3163 3163 3164 3163 3163 3162 3161 3161 3162 3162 3162 3162 3163 3164 3164 3164 3164 3164 3165 3165 3166 3166 3166 3166 3167 3167 3167 3167 3168 3168 3168 3168 3168 3167 3167 3167 3167 3166 3165 3165 3165 3166 3165 3165 3165 3164 3164 3164 3165 3165 3164 3164 3163 3162 3161 3160
3153 3153 3153 3153 3154 3154 3154 3154 3154 3153 3153 3154 3154 3155 3155 3155 3156 3156 3156 3156 3156 3156 3156 3156 3156 3156 3156 3157 3158 3158 3158 3159 3158 3158 3158 3157 3157 3157 3157 3157 3157 3158 3159 3159 3159 3160 3159 3159 3159 3160 3160 3160 3160 3161 3161 3161 3161 3161 3161 3162 3162 3162 3162 3162 3162 3162 3161 3161 3161 3161 3161 3161 3160 3160 3159 3159 3159 3159 3159 3159 3159 3158 3157 3156 3155
3149 3149 3149 3149 3149 3149 3150 3150 3150 3150 3150 3150 3151 3151 3151 3151 3151 3151 3152 3151 3151 3151 3150 3150 3151 3151 3151 3151 3151 3152 3153 3153 3153 3153 3153 3153 3152 3153 3153 3153 3152 3152 3153 3154 3154 3154 3154 3153 3153 3154 3154 3154 3154 3155 3155 3155 3155 3155 3155 3155 3156 3156 3157 3157 3157 3156 3156 3156 3157 3156 3156 3156 3156 3155 3154 3154 3154 3154 3154 3154 3154 3154 3153 3152 3152
3145 3145 3145 3145 3145 3145 3145 3146 3146 3146 3147 3147 3147 3147 3147 3147 3147 3146 3147 3147 3147 3146 3145 3145 3144 3144 3145 3145 3146 3146 3147 3147 3147 3147 3147 3148 3148 3148 3148 3148 3148 3148 3148 3148 3148 3148 3148 3148 3148 3148 3148 3148 3148 3148 3149 3149 3149 3149 3149 3149 3150 3150 3151 3151 3151 3151 3151 3151 3151 3151 3151 3151 3151 3150 3149 3149 3149 3149 3150 3150 3150 3150 3149 3148 3147
3141 3141 3141 3141 3141 3141 3141 3141 3141 3142 3142 3142 3142 3142 3142 3143 3143 3142 3142 3142 3142 3142 3142 3141 3140 3138 3138 3139 3140 3141 3141 3141 3141 3141 3141 3141 3142 3143 3143 3143 3143 3143 3143 3143 3142 3143 3143 3143 3142 3142 3142 3142 3142 3142 3142 3142 3142 3142 3142 3143 3143 3144 3144 3145 3145 3145 3145 3145 3145 3145 3146 3146 3145 3145 3144 3143 3144 3144 3145 3145 3145 3145 3144 3144 3142
3137 3137 3137 3137 3137 3137 3137 3137 3137 3137 3137 3137 3137 3137 3137 3137 3137 3137 3137 3137 3137 3137 3137 3137 3136 3135 3133 3133 3134 3134 3135 3136 3136 3136 3136 3135 3136 3136 3137 3137 3137 3137 3137 3137 3137 3137 3137 3137 3137 3136 3136 3136 3136 3136 3136 3136 3136 3136 3136 3136 3137 3137 3137 3138 3138 3139 3139 3139 3139 3139 3139 3139 3140 3139 3138 3138 3138 3138 3139 3139 3139 3139 3139 3138 3137
3133 3133 3133 3133 3133 3133 3133 3133 3132 3132 3132 3132 3132 3132 3132 3132 3132 3132 3132 3132 3132 3132 3131 3131 3131 3130 3129 3128 3128 3128 3128 3129 3130 3130 3131 3130 3130 3129 3129 3129 3130 3130 3131 3131 3131 3131 3131 3131 3131 3131 3130 3130 3130 3130 3130 3130 3130 3130 3130 3130 3130 3130 3131 3131 3132 3132 3132 3133 3133 3133 3133 3133 3133 3133 3132 3131 3132 3132 3133 3133 3133 3133 3133 3132 3131
3129 3129 3129 3129 3129 3129 3128 3128 3128 3127 3127 3127 3127 3127 3127 3127 3127 3127 3126 3126 3126 3126 3126 3125 3125 3124 3123 3123 3122 3122 3122 3122 3123 3124 3124 3124 3124 3123 3122 3122 3123 3123 3124 3125 3125 3125 3125 3125 3125 3125 3125 3124 3124 3124 3124 3124 3124 3124 3123 3124 3124 3124 3124 3124 3125 3126 3126 3126 3126 3126 3126 3126 3127 3127 3126 3125 3125 3126 3126 3126 3126 3126 3126 3126 3125
3124 3124 3124 3124 3124 3124 3123 3123 3123 3122 3122 3122 3121 3121 3121 3121 3121 3121 3120 3120 3120 3120 3120 3119 3119 3118 3117 3116 3116 3116 3116 3116 3117 3117 3117 3118 3118 3117 3116 3116 3116 3116 3117 3118 3118 3118 3118 3118 3119 3119 3119 3119 3119 3118 3118 3118 3118 3118 3117 3117 3117 3118 3118 3118 3118 3119 3119 3119 3119 3120 3120 3120 3120 3121 3120 3119 3120 3120 3120 3119 3119 3120 3119 3119 3119
3120 3120 3119 3119 3119 3118 3118 3117 3117 3116 3116 3116 3115 3115 3115 3115 3115 3115 3114 3114 3114 3114 3113 3113 3112 3112 3111 3110 3109 3109 3109 3110 3110 3110 3111 3111 3111 3110 3110 3109 3109 3109 3110 3110 3111 3111 3111 3112 3112 3113 3113 3113 3113 3113 3113 3112 3112 3112 3112 3111 3111 3111 3112 3112 3112 3112 3112 3112 3113 3113 3114 3114 3114 3114 3114 3114 3114 3114 3113 3113 3113 3113 3113 3113 3112
3115 3115 3114 3114 3113 3113 3112 3112 3111 3110 3110 3110 3109 3109 3108 3108 3108 3108 3108 3107 3107 3107 3106 3106 3106 3105 3104 3104 3103 3102 3102 3102 3103 3103 3103 3103 3103 3103 3103 3103 3102 3102 3103 3103 3104 3104 3104 3105 3105 3106 3106 3107 3107 3107 3107 3107 3106 3106 3106 3106 3105 3105 3106 3106 3106 3106 3106 3106 3106 3106 3107 3107 3107 3107 3108 3108 3108 3108 3107 3107 3107 3107 3107 3107 3106
3111 3111 3110 3109 3108 3108 3107 3107 3106 3105 3105 3104 3103 3103 3102 3101 3101 3101 3101 3101 3100 3100 3100 3100 3099 3098 3098 3097 3096 3095 3095 3095 3096 3096 3096 3096 3096 3096 3096 3096 3095 3095 3095 3096 3097 3097 3097 3098 3099 3099 3099 3100 3100 3100 3100 3100 3100 3100 3100 3100 3100 3100 3100 3100 3099 3099 3099 3099 3100 3100 3100 3100 3100 3100 3101 3101 3101 3101 3101 3101 3101 3101 3101 3100 3100
3107 3106 3105 3105 3104 3103 3102 3102 3101 3100 3099 3099 3098 3097 3096 3095 3095 3094 3094 3093 3093 3093 3093 3093 3092 3092 3091 3090 3089 3089 3089 3089 3089 3089 3088 3088 3089 3089 3089 3088 3088 3088 3088 3089 3089 3089 3090 3091 3092 3092 3093 3093 3093 3093 3093 3094 3094 3094 3094 3094 3094 3094 3094 3094 3094 3093 3093 3093 3093 3093 3093 3093 3093 3093 3094 3094 3094 3094 3094 3094 3094 3094 3094 3094 3094
3102 3101 3100 3100 3099 3098 3097 3096 3096 3095 3094 3093 3092 3091 3090 3089 3088 3087 3087 3086 3086 3086 3086 3086 3085 3085 3084 3083 3083 3082 3082 3082 3082 3082 3082 3081 3082 3082 3082 3081 3081 3081 3081 3081 3082 3082 3082 3083 3085 3086 3086 3086 3086 3086 3086 3087 3087 3087 3088 3088 3088 3088 3088 3088 3088 3088 3087 3087 3087 3087 3087 3087 3087 3087 3087 3087 3087 3087 3087 3087 3087 3087 3087 3086 3086
3096 3095 3095 3094 3093 3092 3092 3091 3090 3089 3088 3087 3086 3085 3084 3083 3082 3081 3080 3080 3079 3079 3079 3078 3078 3078 3077 3077 3076 3076 3075 3075 3075 3075 3075 3075 3075 3074 3074 3074 3074 3074 3074 3075 3075 3075 3075 3076 3077 3078 3079 3079 3079 3079 3080 3080 3080 3080 3081 3081 3081 3082 3082 3082 3082 3082 3081 3081 3081 3081 3081 3081 3081 3081 3080 3081 3080 3080 3080 3080 3080 3080 3079 3079 3079
3090 3089 3089 3088 3087 3086 3085 3085 3084 3083 3082 3080 3079 3079 3078 3077 3076 3075 3074 3073 3072 3072 3071 3071 3071 3071 3070 3070 3069 3069 3068 3068 3068 3069 3069 3068 3068 3067 3067 3068 3068 3068 3068 3068 3068 3068 3068 3068 3069 3070 3071 3072 3073 3073 3073 3073 3073 3073 3073 3074 3074 3075 3075 3076 3076 3076 3076 3075 3075 3075 3075 3075 3075 3074 3074 3073 3073 3073 3073 3073 3073 3072 3072 3072 3072
3084 3083 3082 3081 3081 3080 3079 3078 3077 3076 3075 3074 3073 3072 3071 3070 3070 3069 3068 3067 3066 3065 3064 3064 3064 3063 3063 3063 3062 3062 3061 3061 3061 3062 3062 3061 3061 3061 3061 3061 3062 3062 3062 3062 3062 3062 3062 3062 3062 3062 3063 3064 3065 3066 3066 3066 3066 3066 3066 3066 3066 3067 3068 3069 3070 3070 3070 3069 3069 3069 3069 3069 3069 3069 3068 3067 3067 3066 3066 3066 3066 3065 3065 3065 3064
3078 3077 3076 3075 3074 3073 3072 3071 3070 3069 3068 3067 3066 3065 3064 3063 3063 3062 3061 3060 3059 3059 3058 3057 3057 3057 3056 3056 3055 3055 3054 3054 3055 3055 3055 3055 3055 3055 3055 3055 3056 3056 3056 3056 3056 3056 3056 3055 3055 3055 3055 3056 3057 3058 3058 3058 3059 3059 3059 3059 3059 3060 3061 3062 3062 3063 3063 3063 3063 3063 3063 3063 3063 3063 3062 3061 3061 3060 3059 3059 3059 3058 3058 3057 3057
3073 3071 3070 3069 3068 3067 3066 3065 3064 3063 3062 3061 3060 3059 3058 3057 3056 3055 3054 3053 3053 3052 3051 3051 3051 3050 3050 3049 3049 3048 3048 3048 3048 3048 3048 3048 3048 3049 3049 3049 3049 3049 3049 3050 3050 3050 3049 3049 3049 3048 3048 3049 3049 3050 3050 3051 3051 3052 3052 3052 3052 3053 3053 3054 3055 3055 3056 3056 3056 3056 3056 3057 3057 3056 3056 3055 3054 3054 3053 3052 3052 3051 3051 3050 3050
3067 3066 3065 3063 3062 3061 3059 3058 3057 3056 3055 3054 3053 3052 3051 3051 3050 3049 3048 3047 3046 3045 3044 3044 3044 3044 3043 3043 3042 3042 3042 3042 3042 3042 3042 3042 3042 3042 3043 3043 3043 3043 3043 3043 3043 3043 3043 3043 3043 3042 3042 3042 3042 3042 3043 3043 3044 3044 3044 3045 3045 3045 3046 3046 3047 3047 3048 3049 3050 3050 3050 3050 3050 3050 3049 3049 3048 3047 3047 3046 3045 3045 3044 3043 3042
3061 3060 3059 3057 3056 3055 3053 3052 3051 3050 3049 3048 3047 3046 3045 3045 3044 3044 3042 3041 3040 3039 3038 3037 3037 3037 3037 3036 3036 3036 3036 3036 3036 3036 3036 3035 3035 3036 3036 3036 3036 3037 3037 3037 3037 3037 3037 3037 3036 3036 3036 3036 3036 3035 3035 3036 3036 3036 3037 3037 3038 3038 3038 3039 3039 3040 3040 3041 3042 3043 3043 3043 3043 3043 3043 3042 3042 3041 3040 3040 3039 3038 3038 3037 3036